Location: Corralito
(10.2667°N, 66.9500°W)
Time: 19:11:56
(UTC+00:00)

CZ-4B DEB - Pass Details

Date: 05 December 2023
Orbit: 838 x 858 km, 99.0° (Epoch: 28 February)

Event Time Altitude Azimuth Distance (km) Brightness Sun altitude
Rises 23:56:25 0° 171° (S) 3,405 7.5 -26.5°
Reaches altitude 10° 23:58:46 10° 172° (S) 2,472 6.7 -27.1°
Maximum altitude 00:04:15 75° 257° (WSW) 884 4.3 -28.3°
Enters shadow 00:07:43 24° 339° (NNW) 1,712 5.7 -29.1°
